Torna al catalogo

INTELSAT 33E DEB

AttivoGEO
NORAD 64398·DEBRIS· XX

Lanciato Aug 24, 2016 da Guiana Space Centre

Loading…

TLE

AggiornatoSource: Space-Track

Epoca: Sep 12, 2026, 03:55 UTC

1 64398U 16053AC  26255.16388253  .00000103  00000-0  00000-0 0  9995
2 64398   1.5953  56.0841 0089637 334.8491  25.5896  1.00972150  6897

Traccia INTELSAT 33E DEB in tempo reale con AllMySat

Download on the App Store